Location: Sabana Grande
(18.0777°N, 66.9605°W)
Time: 02:47:56
(UTC-04:00)

ACS3 Solar Sail - Pass Details

Date: 20 September 2024
Orbit: 960 x 1033 km, 97.5° (Epoch: 12 October)

Event Time Altitude Azimuth Distance (km) Brightness Sun altitude
Rises 10:23:38 0° 346° (NNW) 3,734 4.6 56.4°
Reaches altitude 10° 10:26:58 10° 329° (NNW) 2,768 4.0 57.1°
Drops below altitude 10° 10:34:55 10° 248° (WSW) 2,733 4.1 58.7°
Enters shadow 11:14:51 -70° 157° (SSE) 13,032 7.1 66.2°
Exits shadow 11:39:22 -55° 39° (NE) 11,692 6.8 69.9°
